Green Bay, WI

2:55 PM CDT on June 28, 2017 (GMT -0500)
Austin Straubel International

Weather History for KGRB - December, 2012

Change the Weather History Date:

Tuesday, December 25, 2012

  Actual Average Record
Temperature  
Mean Temperature 18 °F 19 °F  
Max Temperature 25 °F 26 °F 50 °F (1936)
Min Temperature 10 °F 12 °F -22 °F (2000)
Degree Days  
Heating Degree Days 47 46  
Month to date heating degree days 853 1068  
Since 1 July heating degree days 2486 2808  
Cooling Degree Days 0 0  
Month to date cooling degree days 0 0  
Year to date cooling degree days 786 398  
Moisture  
Dew Point 11 °F    
Average Humidity 71    
Maximum Humidity 80    
Minimum Humidity 62    
Precipitation  
Precipitation 0.00 in 0.05 in 0.62 in (1973)
Month to date precipitation 2.17 1.27  
Year to date precipitation 31.16 29.28  
Snow  
Snow 0.00 in 0.40 in 5.40 in (1945)
Month to date snowfall 15.7 10.6  
Since 1 July snowfall 17.2 14.8  
Snow Depth 7.00 in    
Sea Level Pressure  
Sea Level Pressure 30.34 in    
Wind  
Wind Speed 8 mph (NNW)    
Max Wind Speed 15 mph    
Max Gust Speed 17 mph    
Visibility 10 miles    
Events      
T = Trace of Precipitation, MM = Missing Value Source: NWS Daily Summary

Daily Weather History Graph

Daily Weather History Graph

Search for Another Location

Airport or City:

Trip Planner

Search our weather history database for the weather conditions in past years. The results will help you decide how hot, cold, wet, or windy it might be!

Date:

Astronomy

Dec. 25, 2012 Rise Set
Actual Time 7:27 AM CST 4:18 PM CST
Civil Twilight 6:54 AM CST 4:51 PM CST
Nautical Twilight 6:17 AM CST 5:28 PM CST
Astronomical Twilight 5:41 AM CST 6:03 PM CST
Moon 2:27 PM CST (12/25) 4:58 AM CST (12/25)
Length of Visible Light 9h 57m
Length of Day
8h 50m
Waxing Gibbous, 94% of the Moon is Illuminated
Dec 25
Waxing Gibbous
Dec 28
Full
Jan 4
Last Quarter
Jan 11
New
Jan 18
First Quarter

Hourly Weather History & Observations

Time (CST) Temp. Windchill Dew Point Humidity Pressure Visibility Wind Dir Wind Speed Gust Speed Precip Events Conditions
12:53 AM 21.9 °F 11.7 °F 14.0 °F 72% 30.19 in 10.0 mi North 9.2 mph - N/A   Overcast
1:53 AM 21.0 °F 9.9 °F 12.9 °F 71% 30.22 in 10.0 mi NNW 10.4 mph - N/A   Overcast
2:53 AM 19.9 °F 9.3 °F 10.9 °F 68% 30.25 in 10.0 mi North 9.2 mph - N/A   Overcast
3:53 AM 19.0 °F 9.0 °F 10.0 °F 68% 30.27 in 10.0 mi North 8.1 mph - N/A   Overcast
4:53 AM 17.1 °F 8.7 °F 8.1 °F 68% 30.29 in 10.0 mi NNW 5.8 mph - N/A   Mostly Cloudy
5:08 AM 16.0 °F 6.3 °F 7.0 °F 68% 30.25 in 10.0 mi NNW 6.9 mph - N/A   Scattered Clouds
5:53 AM 10.9 °F -0.8 °F 5.0 °F 77% 30.32 in 10.0 mi NW 8.1 mph - N/A   Clear
6:53 AM 10.9 °F -1.8 °F 5.0 °F 77% 30.33 in 10.0 mi NW 9.2 mph - N/A   Clear
7:53 AM 10.9 °F -2.6 °F 5.0 °F 77% 30.35 in 10.0 mi NW 10.4 mph - N/A   Clear
8:53 AM 14.0 °F 2.0 °F 7.0 °F 74% 30.37 in 10.0 mi NNW 9.2 mph - N/A   Clear
9:53 AM 17.1 °F 5.8 °F 9.0 °F 71% 30.40 in 10.0 mi North 9.2 mph - N/A   Clear
10:53 AM 19.0 °F 10.0 °F 10.0 °F 68% 30.37 in 10.0 mi North 6.9 mph - N/A   Clear
11:53 AM 23.0 °F 17.0 °F 12.0 °F 63% 30.36 in 10.0 mi North 4.6 mph - N/A   Scattered Clouds
12:01 PM 21.9 °F 13.4 °F 12.0 °F 66% 30.32 in 10.0 mi NW 6.9 mph - N/A   Mostly Cloudy
12:53 PM 21.9 °F 15.7 °F 12.9 °F 68% 30.37 in 10.0 mi West 4.6 mph - N/A   Overcast
1:53 PM 23.0 °F 17.0 °F 12.9 °F 65% 30.38 in 10.0 mi NW 4.6 mph - N/A   Overcast
2:53 PM 24.1 °F 15.2 °F 14.0 °F 65% 30.36 in 10.0 mi North 8.1 mph - N/A   Overcast
3:29 PM 23.0 °F 15.8 °F 14.0 °F 68% 30.32 in 10.0 mi North 5.8 mph - N/A   Scattered Clouds
3:53 PM 21.9 °F 15.7 °F 14.0 °F 72% 30.37 in 10.0 mi North 4.6 mph - N/A   Mostly Cloudy
4:42 PM 24.1 °F 18.2 °F 16.0 °F 71% 30.34 in 10.0 mi North 4.6 mph - N/A   Overcast
4:53 PM 23.0 °F 18.4 °F 16.0 °F 74% 30.39 in 10.0 mi NNW 3.5 mph - N/A   Overcast
5:53 PM 21.9 °F 13.4 °F 16.0 °F 78% 30.41 in 10.0 mi North 6.9 mph - N/A   Overcast
6:53 PM 21.9 °F 13.4 °F 15.1 °F 75% 30.42 in 10.0 mi North 6.9 mph - N/A   Overcast
7:53 PM 19.9 °F 8.6 °F 14.0 °F 78% 30.41 in 10.0 mi North 10.4 mph - N/A   Mostly Cloudy
8:53 PM 19.9 °F 9.3 °F 12.9 °F 74% 30.40 in 10.0 mi North 9.2 mph - N/A   Clear
9:53 PM 16.0 °F 3.6 °F 10.0 °F 77% 30.39 in 10.0 mi NNE 10.4 mph - N/A   Partly Cloudy
10:53 PM 18.0 °F 4.8 °F 10.9 °F 74% 30.38 in 10.0 mi North 12.7 mph - N/A   Clear
11:53 PM 17.1 °F 7.6 °F 10.9 °F 77% 30.37 in 10.0 mi North 6.9 mph - N/A   Overcast